Location: Boursonne
(49.2024°N, 3.0468°E)
Time: 01:58:49
(UTC+00:00)

SL-8 Rocket - Pass Details

Date: 03 March 2021
Orbit: 957 x 991 km, 82.9° (Epoch: 17 April)

Event Time Altitude Azimuth Distance (km) Brightness Sun altitude
Rises 19:51:18 0° 195° (SSW) 3,668 7.0 -22.9°
Reaches altitude 10° 19:53:50 10° 197° (SSW) 2,720 6.3 -23.3°
Maximum altitude 20:00:02 70° 281° (W) 1,032 4.2 -24.3°
Drops below altitude 10° 20:06:15 10° 6° (N) 2,715 6.5 -25.2°
Sets 20:08:47 0° 9° (N) 3,662 7.2 -25.6°
